Location: Chimay
(50.0486°N, 4.3171°E)
Time: 05:10:43
(UTC+00:00)

Cosmos 407 Rocket - Pass Details

Date: 08 August 2020
Orbit: 744 x 786 km, 74.0° (Epoch: 19 September)

Event Time Altitude Azimuth Distance (km) Brightness Sun altitude
Rises 20:18:00 0° 189° (S) 3,260 6.5 -9.6°
Reaches altitude 10° 20:20:25 10° 185° (S) 2,333 5.7 -9.9°
Maximum altitude 20:25:36 57° 108° (ESE) 916 3.6 -10.5°
Drops below altitude 10° 20:30:47 10° 31° (NNE) 2,328 6.1 -11.1°
Sets 20:33:11 0° 27° (NNE) 3,253 7.0 -11.4°
